PBO Station Position Time Series. Reference Frame : NAM14
Format Version,1.1.1
4-character ID,NCGO
Station name,Goldsboro
Begin Date, 2008-07-02
End Date, 2023-06-26
Release Date, 2023-06-27
Reference position, 35.4213600459 North Latitude, -78.0584978567 East Longitude, 12.68912 meters elevation,
Date, North (mm), East (mm), Vertical (mm), North Std. Deviation (mm), East Std. Deviation (mm),              Vertical Std. Deviation (mm), Quality,
2008-07-02,0.00, 0.00, 0.00, 1.87, 1.76, 7.35, repro,
2008-07-03,-1.01, 1.30, -4.65, 1.87, 1.76, 7.33, repro,
2008-07-04,-0.68, 2.96, -5.75, 1.90, 1.76, 7.44, repro,
2008-07-05,-0.42, 1.02, -0.17, 1.89, 1.76, 7.54, repro,
2008-07-06,-0.95, 3.79, -5.29, 1.89, 1.75, 7.42, repro,
2008-07-07,-0.79, 0.97, 2.12, 1.91, 1.74, 7.61, repro,
2008-07-08,-0.33, 2.40, -11.99, 1.87, 1.74, 7.43, repro,
2008-07-09,0.87, 2.36, 1.66, 1.90, 1.81, 7.50, repro,
2008-07-10,-1.62, 1.87, 6.25, 1.96, 1.92, 7.78, repro,
2008-07-11,-0.31, 1.23, 1.29, 1.98, 1.94, 7.93, repro,
2008-07-12,-0.58, 0.22, -5.35, 1.87, 1.72, 7.30, repro,
2008-07-13,-0.56, 1.17, 4.97, 1.95, 1.76, 7.79, repro,
2008-07-14,-1.50, 1.30, 10.33, 1.85, 1.73, 7.37, repro,
2008-07-15,-2.05, 0.85, 0.79, 1.84, 1.72, 7.28, repro,
2008-07-16,-1.25, 1.36, -2.30, 1.84, 1.73, 7.32, repro,
2008-07-17,-1.86, 0.11, 0.99, 1.86, 1.80, 7.38, repro,
2008-07-18,0.37, 4.23, 0.96, 1.92, 1.88, 7.77, repro,
2008-07-19,-0.74, 1.95, -6.32, 2.11, 1.96, 8.55, repro,
2008-07-20,-0.48, 0.64, -1.74, 1.86, 1.74, 7.41, repro,
2008-07-21,0.26, 0.89, -4.39, 2.04, 1.83, 8.03, repro,
2008-07-22,3.74, 2.62, -0.89, 2.10, 1.90, 8.14, repro,
2008-07-23,-0.12, 1.85, 6.16, 2.00, 1.90, 8.01, repro,
2008-07-24,-0.81, -0.32, -6.71, 1.91, 1.77, 7.60, repro,
2008-07-25,-4.28, 0.80, 2.84, 1.88, 1.73, 7.40, repro,
2008-07-26,-0.84, 2.36, -2.77, 1.84, 1.71, 7.32, repro,
2008-07-27,-2.23, 1.18, 3.92, 1.86, 1.73, 7.44, repro,
2008-07-28,-0.16, 1.33, -4.82, 2.36, 2.48, 9.32, repro,
2008-07-29,-1.96, 0.97, 9.57, 1.86, 1.79, 7.40, repro,
2008-07-30,0.45, -0.62, 2.58, 1.88, 1.84, 7.57, repro,
2008-07-31,0.17, 2.41, 14.11, 1.97, 1.82, 7.79, repro,
2008-08-01,-2.99, 1.79, -1.90, 1.85, 1.73, 7.37, repro,
2008-08-02,-0.95, 2.95, 5.18, 1.89, 1.75, 7.55, repro,
2008-08-03,-0.10, 3.58, -3.16, 2.06, 2.17, 8.44, repro,
2008-08-04,-0.37, 1.05, 0.66, 2.06, 1.86, 8.04, repro,
2008-08-05,-2.19, 4.27, 4.95, 1.85, 1.72, 7.35, repro,
2008-08-06,-0.05, 1.89, 2.83, 1.87, 1.78, 7.57, repro,
2008-08-07,0.26, 1.36, 13.41, 1.95, 1.81, 7.93, repro,
2008-08-08,0.53, 3.41, 7.52, 1.93, 1.81, 7.88, repro,
2008-08-09,1.51, 3.97, 10.22, 2.02, 1.90, 8.09, repro,
2008-08-10,-2.86, 4.51, 0.55, 1.88, 1.77, 7.55, repro,
2008-08-11,-0.01, -0.92, -3.27, 2.00, 2.02, 8.20, repro,
2008-08-12,-0.62, 1.53, 3.47, 1.85, 1.76, 7.43, repro,
2008-08-13,-2.15, 3.44, 7.54, 1.86, 1.77, 7.53, repro,
2008-08-14,-1.19, 1.99, 4.02, 1.85, 1.78, 7.50, repro,
2008-08-15,-3.18, 3.42, 0.40, 1.97, 1.88, 7.91, repro,
2008-08-16,-0.91, 3.41, -5.56, 1.95, 1.90, 7.81, repro,
2008-08-17,-1.03, 1.44, -4.15, 1.87, 1.77, 7.51, repro,
2008-08-18,-1.95, 2.40, -0.24, 1.84, 1.76, 7.39, repro,
2008-08-19,-2.37, 0.68, 1.33, 1.89, 1.85, 7.73, repro,
2008-08-20,-1.53, 0.60, 8.00, 2.08, 1.92, 8.20, repro,
2008-08-21,-0.27, 2.23, -7.76, 1.89, 1.82, 7.65, repro,
2008-08-22,-1.11, 1.73, 6.63, 1.89, 1.81, 7.64, repro,
2008-08-23,0.42, 0.64, 5.93, 1.87, 1.78, 7.48, repro,
2008-08-24,-2.28, 0.40, 1.41, 1.89, 1.82, 7.64, repro,
2008-08-25,-0.65, 2.80, 7.54, 1.91, 1.83, 7.65, repro,
2008-08-26,-0.54, 3.23, 3.76, 1.88, 1.81, 7.58, repro,
2008-08-27,-1.78, 3.42, 9.51, 2.00, 1.88, 8.00, repro,
2008-08-28,-0.58, -0.74, 5.75, 2.77, 2.58, 10.93, repro,
2008-08-29,-0.75, 0.86, -6.25, 2.09, 2.01, 8.58, repro,
2008-08-30,-2.10, 0.85, -2.76, 1.89, 1.83, 7.64, repro,
2008-08-31,-1.29, 2.30, -10.10, 2.21, 2.19, 9.39, repro,
2008-09-01,-2.16, 1.86, 1.34, 1.94, 1.86, 7.80, repro,
2008-09-02,0.28, 1.02, -5.67, 1.93, 1.83, 7.65, repro,
2008-09-03,-1.93, 0.87, 2.18, 1.90, 1.82, 7.62, repro,
2008-09-04,-2.16, 1.77, 1.92, 2.08, 1.93, 8.16, repro,
2008-09-05,1.35, -2.95, -3.84, 2.28, 2.15, 9.25, repro,
2008-09-08,-0.14, 0.91, -6.61, 2.55, 2.56, 10.99, repro,
2008-09-09,-0.74, 1.59, -9.21, 2.40, 2.22, 9.70, repro,
2008-09-10,-0.95, 1.47, -3.01, 2.04, 1.88, 8.03, repro,
2008-09-11,-1.49, 1.28, -5.09, 1.94, 1.86, 7.81, repro,
2008-09-12,-1.02, 1.90, -1.38, 2.11, 1.90, 8.08, repro,
2008-09-13,-1.01, 1.71, -0.05, 2.03, 1.86, 7.98, repro,
2008-09-14,-1.76, 2.45, -2.58, 1.95, 1.85, 7.76, repro,
2008-09-15,-0.65, 0.81, -2.43, 1.94, 1.85, 7.74, repro,
2008-09-16,0.06, 0.93, 9.70, 1.93, 1.84, 7.78, repro,
2008-09-17,-2.01, 2.43, -9.20, 1.93, 1.86, 7.79, repro,
2008-09-18,-1.02, 0.34, -5.88, 1.92, 1.85, 7.73, repro,
2008-09-19,-2.65, 1.49, -8.17, 1.92, 1.88, 7.85, repro,
2008-09-20,-1.75, 1.12, -5.56, 1.86, 1.79, 7.49, repro,
2008-09-21,-3.02, 0.68, -0.54, 1.89, 1.81, 7.57, repro,
2008-09-22,-3.31, 0.32, -11.21, 1.84, 1.78, 7.44, repro,
2008-09-23,-2.81, 0.67, 1.23, 1.85, 1.77, 7.45, repro,
2008-09-24,-2.28, 1.10, -0.23, 1.97, 1.81, 7.73, repro,
2008-09-25,-3.34, 3.89, -16.77, 2.28, 2.25, 9.36, repro,
2008-09-26,-1.80, 1.28, 3.49, 1.94, 1.86, 7.78, repro,
2008-09-27,-2.00, -0.40, 0.66, 1.96, 1.81, 7.70, repro,
2008-09-28,-0.52, -2.06, -16.97, 5.13, 4.23, 18.55, repro,
2008-09-29,-3.64, 0.88, -6.52, 2.39, 2.26, 9.76, repro,
2008-09-30,-1.47, 0.10, -2.04, 1.98, 1.85, 7.91, repro,
2008-10-01,-1.85, 1.40, 8.04, 1.91, 1.81, 7.68, repro,
2008-10-02,-1.85, 1.87, 2.14, 1.97, 1.79, 7.67, repro,
2008-10-03,-2.53, 1.27, -3.36, 1.96, 1.78, 7.64, repro,
2008-10-04,-1.00, -0.06, -6.58, 1.85, 1.75, 7.45, repro,
2008-10-05,-1.60, 0.98, -9.98, 1.86, 1.77, 7.54, repro,
2008-10-06,-2.05, 1.46, -4.88, 1.85, 1.75, 7.45, repro,
2008-10-07,-0.40, 0.40, -2.09, 1.88, 1.77, 7.42, repro,
2008-10-08,-2.20, 1.00, -1.33, 1.87, 1.74, 7.41, repro,
2008-10-09,-1.84, 0.31, 2.63, 1.83, 1.72, 7.38, repro,
2008-10-10,-0.97, -0.29, -0.58, 1.82, 1.73, 7.36, repro,
2008-10-11,-1.99, 0.88, -13.58, 1.86, 1.75, 7.50, repro,
2008-10-12,-0.38, -2.73, 0.29, 1.85, 1.73, 7.41, repro,
2008-10-13,-2.04, 1.10, -8.00, 1.82, 1.69, 7.19, repro,
2008-10-14,-0.54, 0.44, -4.65, 1.83, 1.72, 7.34, repro,
2008-10-15,-1.28, 0.72, -8.15, 1.85, 1.72, 7.39, repro,
2008-10-16,-0.97, 0.38, -7.44, 1.91, 1.82, 7.64, repro,
2008-10-17,-0.46, 1.07, -2.03, 1.84, 1.71, 7.33, repro,
2008-10-18,-1.61, 1.60, -1.69, 1.90, 1.73, 7.45, repro,
2008-10-19,-2.03, -0.10, 3.20, 1.82, 1.72, 7.32, repro,
2008-10-20,-0.73, -0.01, -7.52, 1.83, 1.72, 7.34, repro,
2008-10-21,-1.63, -0.84, -9.45, 1.81, 1.72, 7.29, repro,
2008-10-22,-1.23, 0.98, -6.60, 1.87, 1.74, 7.41, repro,
2008-10-23,-2.34, -1.13, -8.60, 1.87, 1.73, 7.38, repro,
2008-10-24,-3.82, -0.56, 2.12, 1.87, 1.75, 7.41, repro,
2008-10-25,-2.75, 1.50, -6.78, 1.85, 1.73, 7.37, repro,
2008-10-26,-3.07, -0.06, 3.49, 1.83, 1.72, 7.33, repro,
2008-10-27,-1.59, 0.58, -6.33, 1.83, 1.71, 7.28, repro,
2008-10-28,-2.20, -0.77, -4.07, 1.85, 1.78, 7.43, repro,
2008-10-29,-3.77, -7.48, -16.95, 8.24, 10.27, 32.17, repro,
2008-10-30,-1.26, -0.98, -5.48, 1.82, 1.72, 7.35, repro,
2008-10-31,-1.90, -0.75, -10.47, 1.85, 1.79, 7.54, repro,
2008-11-01,-3.70, -1.12, -4.59, 1.85, 1.74, 7.39, repro,
2008-11-02,-2.20, -0.02, -2.73, 1.86, 1.74, 7.42, repro,
2008-11-03,-3.27, -1.64, 0.89, 1.92, 1.79, 7.56, repro,
2008-11-04,-3.35, -0.49, -3.08, 1.87, 1.76, 7.49, repro,
2008-11-05,-3.54, 0.44, 0.04, 1.86, 1.76, 7.48, repro,
2008-11-06,-2.60, -1.05, -2.38, 1.83, 1.72, 7.33, repro,
2008-11-07,-2.39, -0.33, -2.51, 1.89, 1.76, 7.46, repro,
2008-11-08,-2.96, -0.01, -1.01, 1.87, 1.74, 7.45, repro,
2008-11-09,-3.77, 1.08, 4.80, 1.88, 1.82, 7.48, repro,
2008-11-10,-2.31, -0.28, 3.15, 1.87, 1.76, 7.48, repro,
2008-11-11,-2.72, -0.70, -5.62, 1.87, 1.81, 7.49, repro,
2008-11-12,-2.77, -1.21, -3.41, 1.85, 1.72, 7.32, repro,
2008-11-13,-3.16, 1.25, 7.94, 1.94, 1.79, 7.61, repro,
2008-11-14,-3.42, -1.29, -3.24, 1.95, 1.80, 7.77, repro,
2008-11-15,-1.90, -0.69, -2.59, 1.96, 1.90, 7.97, repro,
2008-11-16,-3.16, 1.41, 5.42, 1.94, 1.80, 7.63, repro,
2008-11-17,-1.74, -0.91, -4.44, 2.04, 1.87, 7.81, repro,
2008-11-18,-2.18, -0.66, -6.10, 1.84, 1.73, 7.35, repro,
2008-11-19,-2.72, -0.94, -5.88, 1.81, 1.71, 7.25, repro,
2008-11-20,-2.90, -0.53, -8.02, 1.88, 1.76, 7.51, repro,
2008-11-21,-1.36, -0.82, -14.49, 1.89, 1.76, 7.51, repro,
2008-11-22,-1.80, -2.48, -14.68, 1.86, 1.74, 7.35, repro,
2008-11-23,-1.86, -2.45, -11.96, 1.88, 1.77, 7.55, repro,
2008-11-24,-2.68, -2.05, -7.40, 1.88, 1.79, 7.52, repro,
2008-11-25,-2.15, -0.30, -6.40, 1.86, 1.75, 7.36, repro,
2008-11-26,-2.00, -1.32, -3.96, 1.81, 1.70, 7.22, repro,
2008-11-27,-2.36, -1.09, -4.13, 1.83, 1.70, 7.19, repro,
2008-11-28,-3.49, -0.33, -0.50, 1.87, 1.75, 7.42, repro,
2008-11-29,-1.77, 0.14, -1.49, 1.87, 1.76, 7.46, repro,
2008-11-30,-3.07, 1.14, 2.69, 1.83, 1.72, 7.28, repro,
2008-12-01,-4.15, 0.30, 2.32, 1.84, 1.71, 7.30, repro,
2008-12-02,-2.59, -1.45, 0.65, 1.85, 1.75, 7.39, repro,
2008-12-03,-1.74, -1.61, -4.57, 1.88, 1.76, 7.42, repro,
2008-12-04,-2.07, -1.61, -7.94, 1.92, 1.77, 7.61, repro,
2008-12-05,-2.45, -0.20, -3.23, 1.91, 1.85, 7.59, repro,
2008-12-06,-1.06, -1.02, -8.14, 1.86, 1.76, 7.45, repro,
2008-12-07,-2.68, -0.36, -4.91, 1.87, 1.75, 7.42, repro,
2008-12-08,-2.12, -1.82, -6.03, 1.87, 1.78, 7.40, repro,
2008-12-09,-2.25, -1.54, -7.44, 1.89, 1.81, 7.49, repro,
2008-12-10,-4.31, -0.66, -2.48, 1.85, 1.75, 7.35, repro,
2008-12-11,-5.34, 2.15, -6.56, 1.98, 1.84, 7.76, repro,
2008-12-12,-1.05, 0.55, -14.66, 1.89, 1.75, 7.39, repro,
2008-12-13,-2.98, -1.43, -4.90, 1.84, 1.70, 7.24, repro,
2008-12-14,-2.70, -1.54, -6.82, 1.83, 1.71, 7.21, repro,
2008-12-15,-1.62, -1.32, -3.26, 1.84, 1.71, 7.26, repro,
2008-12-16,-3.37, 0.34, -7.35, 1.86, 1.71, 7.32, repro,
2008-12-17,-0.71, 0.76, -16.92, 1.86, 1.74, 7.42, repro,
2008-12-18,-3.73, -1.23, -9.57, 1.85, 1.70, 7.31, repro,
2008-12-19,-5.20, -0.86, -7.20, 1.88, 1.77, 7.40, repro,
2008-12-20,-2.43, 2.85, -8.56, 2.54, 2.27, 9.73, repro,
2008-12-21,-3.37, 0.59, -1.74, 1.85, 1.72, 7.34, repro,
2008-12-22,-2.07, -1.46, -10.29, 1.90, 1.86, 7.71, repro,
2008-12-23,-1.40, -1.58, -6.12, 1.89, 1.78, 7.49, repro,
2008-12-24,-2.20, -2.04, -9.65, 1.86, 1.76, 7.38, repro,
2008-12-25,-2.54, -3.29, -5.24, 1.87, 1.76, 7.40, repro,
2008-12-26,-3.50, -0.87, -4.28, 1.85, 1.71, 7.31, repro,
2008-12-27,-1.62, -1.95, -5.37, 1.85, 1.72, 7.35, repro,
2008-12-28,-1.76, -0.53, -6.82, 1.90, 1.78, 7.57, repro,
2008-12-29,-2.73, 0.74, -0.34, 1.86, 1.71, 7.36, repro,
2008-12-30,-1.98, -1.40, -5.53, 1.91, 1.81, 7.79, repro,
2008-12-31,-2.71, 0.62, 0.29, 1.89, 1.75, 7.46, repro,
2009-01-01,-2.26, -2.90, 0.25, 1.91, 1.86, 7.86, repro,
2009-01-02,-1.42, -1.49, -4.45, 1.91, 1.85, 7.87, repro,
2009-01-04,-0.52, -1.27, -8.84, 1.85, 1.73, 7.47, repro,
2009-01-05,-3.64, -2.08, -2.55, 1.88, 1.78, 7.67, repro,
2009-01-06,-3.28, -0.89, -6.99, 1.88, 1.79, 7.72, repro,
2009-01-07,-1.86, -0.65, 10.66, 1.92, 1.90, 7.98, repro,
2009-01-08,-2.67, -0.91, 2.07, 1.91, 1.78, 7.73, repro,
2009-01-09,-1.65, -1.78, -7.51, 1.95, 1.87, 7.98, repro,
2009-01-10,-2.91, -1.75, -3.55, 1.83, 1.72, 7.38, repro,
2009-01-11,-3.63, -1.36, -9.28, 1.88, 1.79, 7.77, repro,
2009-01-12,-2.89, -1.96, -9.83, 1.97, 1.90, 8.10, repro,
2009-01-13,-0.37, -1.08, -12.17, 2.39, 2.23, 9.83, repro,
2009-01-14,-1.36, -2.43, -15.31, 1.89, 1.87, 7.81, repro,
2009-01-15,-2.50, -2.12, -7.05, 1.83, 1.74, 7.37, repro,
2009-01-16,-1.45, -2.77, -11.33, 1.83, 1.73, 7.38, repro,
2009-01-17,-1.46, -3.38, -14.45, 1.87, 1.80, 7.67, repro,
2009-01-18,-3.25, -2.64, -8.92, 1.87, 1.80, 7.65, repro,
2009-01-19,-2.02, -2.93, -7.24, 1.91, 1.87, 7.85, repro,
2009-01-20,-1.85, -1.92, -10.96, 1.86, 1.80, 7.64, repro,
2009-01-21,-1.25, -1.88, -9.13, 1.88, 1.80, 7.69, repro,
2009-01-22,-1.24, -1.89, -6.03, 2.02, 1.88, 8.17, repro,
2009-01-23,-2.48, -2.80, -12.91, 2.04, 1.94, 8.13, repro,
2009-01-24,-1.66, -1.65, -17.82, 1.90, 1.88, 7.87, repro,
2009-01-25,-2.28, -2.30, -19.65, 1.96, 1.90, 8.09, repro,
2009-01-26,-1.84, -1.50, -17.19, 1.85, 1.75, 7.46, repro,
2009-01-27,-2.34, -2.57, -17.27, 2.12, 1.99, 8.58, repro,
2009-01-28,-2.32, -2.35, -11.12, 1.81, 1.69, 7.21, repro,
2009-01-29,-2.01, -0.89, -11.23, 1.81, 1.69, 7.19, repro,
2009-01-30,-2.22, -2.15, -8.63, 1.82, 1.69, 7.24, repro,
2009-01-31,-2.16, -1.55, -14.84, 1.81, 1.68, 7.21, repro,
2009-02-01,-2.95, -3.17, -12.45, 1.82, 1.67, 7.19, repro,
2009-02-02,-2.32, -2.22, -15.74, 1.81, 1.68, 7.23, repro,
2009-02-03,-2.62, -2.28, -14.52, 1.80, 1.68, 7.20, repro,
2009-02-04,-1.26, -3.28, -15.42, 1.80, 1.68, 7.20, repro,
2009-02-05,-0.67, -3.87, -14.49, 1.83, 1.69, 7.29, repro,
2009-02-06,-1.66, -2.90, -14.06, 1.87, 1.81, 7.58, repro,
2009-02-07,-2.89, -3.26, -14.40, 1.83, 1.69, 7.28, repro,
2009-02-08,-3.24, -3.42, -10.77, 1.82, 1.68, 7.28, repro,
2009-02-09,-2.27, -2.24, -14.16, 1.90, 1.74, 7.47, repro,
2009-02-10,-2.70, -1.60, -8.81, 1.83, 1.69, 7.32, repro,
2009-02-11,-2.46, -1.60, -1.88, 1.88, 1.70, 7.41, repro,
2009-02-12,-0.90, -1.17, -1.78, 1.88, 1.72, 7.46, repro,
2009-02-13,-2.14, -1.73, -2.50, 1.82, 1.68, 7.29, repro,
2009-02-14,-1.46, -1.49, -10.70, 1.81, 1.68, 7.26, repro,
2009-02-15,-3.60, -1.74, -9.86, 1.86, 1.70, 7.40, repro,
2009-02-16,-1.76, -1.73, -9.15, 1.86, 1.70, 7.37, repro,
2009-02-17,-1.66, -2.23, -10.49, 1.85, 1.71, 7.42, repro,
2009-02-18,-2.73, -1.25, -3.15, 1.92, 1.76, 7.47, repro,
2009-02-19,-2.05, -1.89, -5.52, 1.90, 1.74, 7.48, repro,
2009-02-20,-2.15, -0.51, -7.08, 1.90, 1.75, 7.42, repro,
2009-02-21,-3.64, -1.46, -10.30, 2.04, 1.83, 7.90, repro,
2009-02-22,-1.05, -2.35, -13.53, 1.88, 1.70, 7.31, repro,
2009-02-23,-2.21, -1.74, -8.98, 1.91, 1.76, 7.40, repro,
2009-02-24,-2.26, -2.62, -11.27, 1.91, 1.77, 7.49, repro,
2009-02-25,-0.30, -1.40, -10.87, 18.23, 5.83, 188.58, repro,
2009-02-26,-3.75, -1.18, -12.00, 1.96, 1.76, 7.50, repro,
2009-02-27,-4.21, -0.78, -12.35, 2.26, 1.90, 8.51, repro,
2009-02-28,-1.99, -0.72, -6.42, 1.98, 1.76, 7.53, repro,
2009-03-01,-2.28, -0.32, -11.64, 1.96, 1.74, 7.50, repro,
2009-03-02,-2.66, -2.23, -8.96, 1.92, 1.76, 7.39, repro,
2009-03-03,-2.56, -1.87, -10.57, 1.96, 1.84, 7.65, repro,
2009-03-04,-3.14, -0.42, -10.81, 1.88, 1.72, 7.34, repro,
2009-03-05,-1.31, -2.19, -12.35, 2.05, 1.84, 7.82, repro,
2009-03-06,-3.35, -0.35, -4.17, 2.14, 1.89, 8.27, repro,
2009-03-07,-3.53, -0.86, -7.99, 1.88, 1.72, 7.27, repro,
2009-03-08,-1.66, -1.05, -10.48, 1.94, 1.78, 7.44, repro,
2009-03-09,-3.29, -0.97, -6.50, 2.15, 1.88, 8.16, repro,
2009-03-10,-3.45, 2.33, -10.39, 1.89, 1.72, 7.29, repro,
2009-03-11,-1.25, -0.39, -7.68, 1.88, 1.74, 7.26, repro,
2009-03-12,-2.82, 0.27, -6.60, 1.97, 1.79, 7.42, repro,
2009-03-13,-1.78, 0.49, -15.60, 2.09, 1.83, 7.64, repro,
2009-03-14,-2.00, -0.67, -10.94, 2.00, 1.84, 7.70, repro,
2009-03-15,-2.58, -0.99, -7.62, 1.89, 1.81, 7.40, repro,
2009-03-16,-2.23, -1.45, -6.85, 1.95, 1.79, 7.39, repro,
2009-03-17,-3.23, -1.52, -5.42, 1.85, 1.72, 7.15, repro,
2009-03-18,-3.44, -0.88, -8.31, 1.85, 1.70, 7.07, repro,
2009-03-19,-3.55, -1.45, -8.00, 1.85, 1.71, 7.13, repro,
2009-03-20,-2.40, -0.22, -7.17, 1.86, 1.70, 7.10, repro,
2009-03-21,-2.50, -2.69, -9.11, 2.03, 1.96, 7.97, repro,
2009-03-22,-2.23, -1.88, -10.07, 1.85, 1.71, 7.14, repro,
2009-03-23,-3.45, -1.69, -3.19, 1.86, 1.72, 7.18, repro,
2009-03-24,-2.33, -1.56, -2.47, 1.86, 1.72, 7.14, repro,
2009-03-25,-2.64, -0.70, -1.59, 1.86, 1.72, 7.16, repro,
2009-03-26,-5.00, -0.60, 2.05, 1.86, 1.72, 7.22, repro,
2009-03-27,-4.00, 0.30, -5.22, 1.90, 1.75, 7.39, repro,
2009-03-28,-1.56, 0.70, 2.89, 1.91, 1.77, 7.40, repro,
2009-03-29,-1.99, -1.65, 1.22, 1.94, 1.79, 7.54, repro,
2009-03-30,-1.42, -0.16, 2.35, 1.88, 1.76, 7.38, repro,
2009-03-31,-2.86, -1.00, 0.96, 1.88, 1.74, 7.34, repro,
2009-04-01,-2.61, -1.17, 0.37, 1.90, 1.80, 7.49, repro,
2009-04-02,-3.97, 0.84, -2.02, 1.89, 1.80, 7.51, repro,
2009-04-03,-4.84, -0.51, 7.87, 1.97, 1.90, 7.88, repro,
2009-04-04,-2.54, -0.77, -3.20, 1.86, 1.74, 7.30, repro,
2009-04-05,-2.77, -0.43, -7.55, 1.88, 1.75, 7.39, repro,
2009-04-06,-2.77, -0.06, -10.37, 2.02, 2.05, 8.40, repro,
2009-04-07,-2.85, 0.02, 7.51, 1.89, 1.75, 7.45, repro,
2009-04-08,-3.14, -0.29, -1.70, 1.88, 1.73, 7.39, repro,
2009-04-09,-3.19, -0.57, 2.25, 1.88, 1.74, 7.42, repro,
2009-04-10,-3.07, -0.92, -5.67, 1.91, 1.75, 7.44, repro,
2009-04-11,-1.50, -0.07, -2.98, 1.90, 1.75, 7.50, repro,
2009-04-12,-2.22, -1.81, -9.48, 1.85, 1.73, 7.34, repro,
2009-04-13,-2.66, 0.07, -0.57, 1.89, 1.78, 7.58, repro,
2009-04-14,-1.77, -0.46, 3.49, 1.89, 1.75, 7.47, repro,
2009-04-15,-2.57, -0.13, -1.68, 1.93, 1.76, 7.54, repro,
2009-04-16,-2.26, -1.51, -9.54, 1.93, 1.82, 7.68, repro,
2009-04-17,-2.59, -1.15, -6.81, 1.85, 1.72, 7.32, repro,
2009-04-18,-2.49, -0.55, -7.36, 1.85, 1.71, 7.30, repro,
2009-04-19,-2.57, 0.41, 2.99, 1.88, 1.72, 7.40, repro,
2009-04-20,-2.16, -1.07, 4.66, 2.31, 2.15, 9.02, repro,
2009-04-21,-3.91, 0.50, 3.69, 2.04, 1.83, 7.86, repro,
2009-04-22,-1.46, 0.04, 0.31, 1.88, 1.72, 7.39, repro,
2009-04-23,-2.28, -1.17, 1.70, 1.88, 1.75, 7.51, repro,
2009-04-24,-2.42, 0.88, -2.76, 1.91, 1.78, 7.65, repro,
2009-04-25,-2.83, -0.65, -2.50, 1.87, 1.73, 7.41, repro,
2009-04-26,-2.05, 0.44, -3.53, 1.88, 1.73, 7.43, repro,
2009-04-27,-1.52, 0.43, -5.90, 1.87, 1.71, 7.33, repro,
2009-04-28,-1.47, 0.04, -4.52, 1.86, 1.71, 7.35, repro,
2009-04-29,-0.41, 1.37, -9.78, 1.91, 1.73, 7.66, repro,
2009-04-30,-1.56, 1.15, -9.80, 1.94, 1.77, 7.85, repro,
2009-05-01,-0.94, 0.43, 9.08, 1.96, 1.84, 7.89, repro,
2009-05-02,-0.14, 0.95, 1.10, 1.88, 1.74, 7.47, repro,
2009-05-03,0.23, 0.04, 2.29, 1.89, 1.73, 7.48, repro,
2009-05-04,-0.01, 0.33, -6.65, 1.89, 1.76, 7.53, repro,
2009-05-05,1.14, 0.66, -0.65, 1.93, 1.77, 7.62, repro,
2009-05-06,-1.73, -0.29, -1.64, 1.93, 1.76, 7.61, repro,
2009-05-07,-0.35, 0.65, 0.64, 2.04, 1.93, 8.06, repro,
2009-05-08,-1.76, 2.38, -0.71, 2.01, 1.85, 8.00, repro,
2009-05-09,-0.88, 0.31, 2.41, 1.91, 1.75, 7.56, repro,
2009-05-10,0.24, 2.64, -11.74, 1.86, 1.73, 7.41, repro,
2009-05-11,-0.04, 1.40, -4.12, 2.21, 2.02, 8.57, repro,
2009-05-12,-1.71, -0.24, -5.10, 1.87, 1.76, 7.49, repro,
2009-05-13,0.22, 0.68, -5.15, 1.87, 1.72, 7.38, repro,
2009-05-14,-2.50, -0.67, -9.58, 1.86, 1.72, 7.38, repro,
2009-05-15,-0.81, -1.39, -5.82, 1.85, 1.71, 7.35, repro,
2009-05-16,0.68, 0.75, -16.38, 1.89, 1.79, 7.65, repro,
2009-05-17,-2.06, 0.05, -14.17, 1.86, 1.71, 7.37, repro,
2009-05-18,-1.63, 0.04, -9.93, 1.88, 1.72, 7.39, repro,
2009-05-19,-2.72, -0.38, -10.78, 1.90, 1.73, 7.42, repro,
2009-05-20,-0.64, -1.91, -9.70, 1.86, 1.71, 7.34, repro,
2009-05-21,-2.32, -0.05, -3.81, 1.84, 1.71, 7.31, repro,
2009-05-22,0.72, -0.16, -13.60, 1.88, 1.77, 7.53, repro,
2009-05-23,-1.05, 1.58, -14.76, 1.90, 1.73, 7.55, repro,
2009-05-24,-2.47, 1.80, -0.85, 1.86, 1.72, 7.35, repro,
2009-05-25,-0.59, 2.17, -4.79, 1.84, 1.70, 7.27, repro,
2009-05-26,0.39, 1.96, -6.66, 1.87, 1.72, 7.42, repro,
2009-05-27,-1.03, 0.76, -5.43, 1.85, 1.70, 7.33, repro,
2009-05-28,-0.56, 1.06, 1.82, 1.88, 1.73, 7.49, repro,
2009-05-29,-1.89, 2.46, 3.43, 2.19, 2.02, 8.74, repro,
2009-05-30,-0.85, -1.05, -8.30, 1.90, 1.72, 7.46, repro,
2009-05-31,-0.81, 2.54, -1.34, 1.87, 1.72, 7.43, repro,
2009-06-01,-1.07, 2.26, -4.86, 1.89, 1.72, 7.45, repro,
2009-06-02,0.50, -0.85, -9.58, 1.88, 1.73, 7.41, repro,
2009-06-03,-3.88, 1.92, 0.06, 1.87, 1.72, 7.39, repro,
2009-06-04,0.23, 2.31, 2.43, 1.94, 1.74, 7.54, repro,
2009-06-05,-1.26, 0.43, -7.50, 1.90, 1.71, 7.43, repro,
2009-06-06,0.17, -0.66, -2.96, 1.91, 1.73, 7.44, repro,
2009-06-07,-2.97, 1.03, -8.59, 1.92, 1.74, 7.59, repro,
2009-06-08,-1.72, 2.77, -9.54, 1.88, 1.72, 7.42, repro,
2009-06-09,-1.75, 0.76, -2.22, 1.93, 1.80, 7.69, repro,
2009-06-10,0.22, 0.48, -12.58, 1.93, 1.74, 7.54, repro,
2009-06-11,-0.77, 0.81, -2.24, 1.91, 1.76, 7.42, repro,
2009-06-12,-1.25, 1.88, -2.58, 2.04, 1.79, 7.91, repro,
2009-06-13,-1.43, 1.23, -1.46, 2.09, 1.82, 8.43, repro,
2009-06-14,1.24, 1.55, 1.86, 1.94, 1.75, 7.66, repro,
2009-06-15,-2.61, 1.19, -6.17, 1.94, 1.74, 7.50, repro,
2009-06-16,0.12, 1.68, -7.30, 1.91, 1.71, 7.35, repro,
2009-06-18,-0.28, -2.90, 10.33, 2.55, 2.50, 10.20, repro,
2009-06-19,-0.45, 1.17, -8.09, 1.93, 1.79, 7.59, repro,
2009-06-20,-1.53, 0.24, 1.18, 1.95, 1.81, 7.67, repro,
2009-06-21,0.44, 1.48, 0.99, 1.91, 1.73, 7.45, repro,
2009-06-22,-1.52, 1.46, 3.01, 1.89, 1.71, 7.33, repro,
2009-06-23,-0.34, 1.82, 2.12, 1.97, 1.83, 7.69, repro,
2009-06-24,-1.01, 2.07, 1.90, 1.95, 1.76, 7.55, repro,
2009-06-25,-0.37, 0.87, -2.66, 1.90, 1.72, 7.39, repro,
2009-06-26,-1.68, 0.44, 0.64, 2.58, 2.43, 9.83, repro,
2009-06-27,-0.97, 3.01, 3.41, 2.04, 1.81, 8.00, repro,
2009-06-28,-1.05, 2.21, 4.38, 1.95, 1.72, 7.47, repro,
2009-06-29,-0.54, 3.00, 16.62, 1.96, 1.74, 7.57, repro,
2009-06-30,-0.54, 2.83, 8.21, 1.95, 1.73, 7.55, repro,
2009-07-01,-1.46, 1.22, 5.15, 2.09, 1.88, 8.00, repro,
2009-07-02,-0.20, 1.67, 1.10, 1.97, 1.79, 7.70, repro,
2009-07-03,-0.13, 0.75, 2.77, 1.88, 1.71, 7.33, repro,
2009-07-04,-0.44, 2.38, 1.44, 1.87, 1.70, 7.33, repro,
2009-07-05,-0.46, 2.98, 10.98, 1.91, 1.72, 7.47, repro,
2009-07-06,0.50, 2.97, 3.40, 1.98, 1.87, 7.80, repro,
2009-07-07,-0.56, 2.68, 1.29, 1.89, 1.70, 7.37, repro,
2009-07-08,-1.53, 3.92, 12.95, 1.94, 1.80, 7.62, repro,
2009-07-09,0.85, -0.79, -7.37, 1.92, 1.72, 7.46, repro,
2009-07-10,-1.14, 2.60, -1.80, 1.87, 1.70, 7.35, repro,
2009-07-11,-0.77, 2.18, 1.16, 1.89, 1.71, 7.40, repro,
2009-07-12,-1.81, 0.57, -1.71, 1.90, 1.71, 7.45, repro,
2009-07-13,-0.89, 1.69, 14.15, 1.92, 1.74, 7.65, repro,
2009-07-14,-3.68, 1.22, 1.40, 1.88, 1.71, 7.41, repro,
2009-07-15,-1.56, 0.47, 1.06, 1.87, 1.71, 7.38, repro,
2009-07-16,-1.69, 0.89, 5.27, 1.98, 1.75, 7.87, repro,
2009-07-17,-2.70, 3.35, 2.12, 2.02, 1.76, 7.95, repro,
2009-07-18,0.37, 2.58, 7.54, 1.95, 1.79, 7.74, repro,
2009-07-19,-1.22, 2.94, -3.16, 1.91, 1.71, 7.49, repro,
2009-07-20,1.51, 2.09, 4.22, 2.03, 1.83, 8.04, repro,
2009-07-21,-0.04, 1.66, -5.11, 1.88, 1.70, 7.33, repro,
2009-07-22,-1.55, 0.03, -2.67, 2.28, 1.95, 8.58, repro,
2009-07-23,-0.81, 4.65, 2.68, 1.97, 1.76, 7.79, repro,
2009-07-24,-1.02, 0.70, -15.35, 2.00, 1.80, 7.89, repro,
2009-07-25,-1.28, 2.10, 9.45, 2.32, 2.02, 8.77, repro,
2009-07-26,1.36, 1.70, 8.44, 2.35, 2.55, 9.36, repro,
2009-07-27,0.70, -1.04, 4.48, 2.07, 1.87, 7.95, repro,
2009-07-28,-1.93, 3.08, 7.99, 1.89, 1.71, 7.41, repro,
2009-07-29,0.88, 0.57, 8.92, 1.91, 1.75, 7.60, repro,
2009-07-30,-3.13, 0.80, 15.19, 2.04, 1.85, 8.24, repro,
2009-07-31,0.34, 0.15, 1.48, 2.14, 1.91, 8.24, repro,
2009-08-01,1.29, 1.93, 0.17, 2.05, 1.88, 7.95, repro,
2009-08-02,1.08, 2.79, -2.81, 1.94, 1.80, 7.72, repro,
2009-08-03,-0.74, 2.04, -3.82, 1.93, 1.74, 7.55, repro,
2009-08-04,-1.87, -0.44, 9.95, 2.01, 1.79, 7.85, repro,
2009-08-05,-0.11, 0.98, -3.65, 2.04, 1.87, 8.02, repro,
2009-08-06,-0.90, 0.27, 6.91, 1.97, 1.85, 7.90, repro,
2009-08-07,-0.60, 2.51, -4.49, 1.87, 1.72, 7.38, repro,
2009-08-08,0.48, 2.90, 4.33, 1.91, 1.77, 7.56, repro,
2009-08-09,-1.64, 2.05, 7.72, 1.93, 1.77, 7.60, repro,
2009-08-10,-0.44, 3.28, 4.53, 1.92, 1.75, 7.53, repro,
2009-08-11,-0.02, 3.61, 0.91, 1.93, 1.81, 7.68, repro,
2009-08-12,-0.80, 2.57, 9.29, 2.07, 2.02, 8.34, repro,
2009-08-13,-1.97, 2.06, -3.68, 1.88, 1.75, 7.44, repro,
2009-08-14,-2.01, 2.04, 5.44, 2.04, 1.97, 8.10, repro,
2009-08-15,-1.01, 0.65, -4.56, 1.94, 1.81, 7.68, repro,
2009-08-16,-1.95, 0.67, 0.16, 1.88, 1.74, 7.38, repro,
2009-08-17,-2.24, 1.50, 5.21, 1.89, 1.77, 7.45, repro,
2009-08-18,-1.40, 3.06, 2.72, 1.90, 1.77, 7.52, repro,
2009-08-19,-1.74, 2.87, 15.65, 1.89, 1.76, 7.45, repro,
2009-08-20,-2.23, 3.61, 5.81, 1.94, 1.78, 7.68, repro,
2009-08-21,-1.54, 2.99, 3.14, 1.96, 1.79, 7.71, repro,
2009-08-22,-2.92, 3.92, 8.17, 2.04, 1.86, 8.02, repro,
2009-08-23,2.85, 2.73, 10.78, 2.00, 1.87, 7.93, repro,
2009-08-24,-1.36, 2.58, 3.64, 1.97, 1.84, 7.77, repro,
2009-08-25,-0.05, 1.99, 0.96, 2.00, 1.82, 7.80, repro,
2009-08-26,-0.95, 2.54, -4.76, 1.98, 1.82, 7.74, repro,
2009-08-27,-1.04, 2.49, -6.59, 1.96, 1.82, 7.73, repro,
2009-08-28,-1.94, 3.25, 5.66, 2.00, 1.86, 7.80, repro,